Araxos, Greece

9:59 AM EEST on May 23, 2018 (GMT +0300)
Araxos Air Base

Weather History for LGRX - March, 2013

Change the Weather History Date:

Saturday, March 30, 2013

  Actual Average Record
Temperature  
Mean Temperature 67 °F -  
Max Temperature 75 °F 65 °F 75 °F (2009)
Min Temperature 59 °F 48 °F 41 °F (2002)
Cooling Degree Days 2    
Growing Degree Days 17 (Base 50)    
Moisture  
Dew Point 53 °F    
Average Humidity 66    
Maximum Humidity 88    
Minimum Humidity 41    
Precipitation  
Precipitation 0.00 in - - ()
Sea Level Pressure  
Sea Level Pressure 29.80 in    
Wind  
Wind Speed 12 mph ()    
Max Wind Speed 18 mph    
Max Gust Speed -    
Visibility 6.2 miles    
Events      
Averages and records for this station are not official NWS values.
T = Trace of Precipitation, MM = Missing Value Source: Averaged Metar Reports

Daily Weather History Graph

Daily Weather History Graph

Search for Another Location

Airport or City:

Astronomy

Mar. 30, 2013 Rise Set
Actual Time 6:22 AM EET 6:55 PM EET
Civil Twilight 5:56 AM EET 7:22 PM EET
Nautical Twilight 5:24 AM EET 7:53 PM EET
Astronomical Twilight 4:52 AM EET 8:25 PM EET
Moon 10:38 PM EET (3/30) 8:05 AM EET (3/30)
Length of Visible Light 13h 26m
Length of Day
12h 33m
Waning Gibbous, 88% of the Moon is Illuminated
Mar 30
Waning Gibbous
Apr 3
Last Quarter
Apr 10
New
Apr 18
First Quarter
Apr 25
Full

Hourly Weather History & Observations

Time (EET) Temp. Dew Point Humidity Pressure Visibility Wind Dir Wind Speed Gust Speed Precip Events Conditions
12:50 AM 59.0 °F 55.4 °F 88% 29.89 in 6.2 mi ENE 13.8 mph - N/A   Scattered Clouds
1:50 AM 59.0 °F 55.4 °F 88% 29.83 in 6.2 mi NE 18.4 mph - N/A   Scattered Clouds
2:50 AM 59.0 °F 51.8 °F 77% 29.83 in 6.2 mi ENE 18.4 mph - N/A   Scattered Clouds
3:50 AM 59.0 °F 51.8 °F 77% 29.83 in 6.2 mi ENE 16.1 mph - N/A   Scattered Clouds
4:50 AM 59.0 °F 53.6 °F 82% 29.80 in 6.2 mi NE 18.4 mph - N/A   Scattered Clouds
5:20 AM 59.0 °F 53.6 °F 82% 29.80 in 6.2 mi NE 18.4 mph - N/A   Scattered Clouds
5:50 AM 59.0 °F 51.8 °F 77% 29.80 in 6.2 mi NE 16.1 mph - N/A   Scattered Clouds
6:20 AM 59.0 °F 53.6 °F 82% 29.80 in 6.2 mi NE 18.4 mph - N/A   Scattered Clouds
6:50 AM 59.0 °F 53.6 °F 82% 29.80 in 6.2 mi ENE 18.4 mph - N/A   Scattered Clouds
7:20 AM 59.0 °F 53.6 °F 82% 29.80 in 6.2 mi ENE 18.4 mph - N/A   Scattered Clouds
7:50 AM 60.8 °F 53.6 °F 77% 29.80 in 6.2 mi NE 17.3 mph - N/A   Partly Cloudy
8:20 AM 60.8 °F 53.6 °F 77% 29.80 in 6.2 mi NE 17.3 mph - N/A   Partly Cloudy
8:50 AM 62.6 °F 51.8 °F 68% 29.80 in 6.2 mi ENE 11.5 mph - N/A   Scattered Clouds
9:20 AM 62.6 °F 51.8 °F 68% 29.80 in 6.2 mi ENE 11.5 mph - N/A   Scattered Clouds
9:50 AM 66.2 °F 53.6 °F 64% 29.80 in 6.2 mi ENE 12.7 mph - N/A   Mostly Cloudy
10:20 AM 66.2 °F 51.8 °F 60% 29.80 in 6.2 mi ENE 11.5 mph - N/A   Scattered Clouds
10:50 AM 66.2 °F 51.8 °F 60% 29.83 in 6.2 mi ENE 9.2 mph - N/A   Mostly Cloudy
11:20 AM 69.8 °F 53.6 °F 56% 29.83 in 6.2 mi ENE 9.2 mph - N/A   Scattered Clouds
11:50 AM 69.8 °F 53.6 °F 56% 29.83 in 6.2 mi ENE 9.2 mph - N/A   Scattered Clouds
12:20 PM 71.6 °F 53.6 °F 53% 29.80 in 6.2 mi ENE 10.4 mph - N/A   Scattered Clouds
12:50 PM 69.8 °F 53.6 °F 56% 29.77 in 6.2 mi ENE 11.5 mph - N/A   Partly Cloudy
1:20 PM 71.6 °F 53.6 °F 53% 29.77 in 6.2 mi ENE 10.4 mph - N/A   Partly Cloudy
1:50 PM 69.8 °F 53.6 °F 56% 29.77 in 6.2 mi NE 6.9 mph - N/A   Partly Cloudy
2:20 PM 69.8 °F 53.6 °F 56% 29.77 in 6.2 mi ENE 5.8 mph - N/A   Partly Cloudy
2:50 PM 73.4 °F 53.6 °F 50% 29.77 in 6.2 mi Variable 3.5 mph - N/A   Partly Cloudy
3:20 PM 75.2 °F 50.0 °F 41% 29.77 in 6.2 mi Variable 3.5 mph - N/A   Partly Cloudy
3:50 PM 73.4 °F 50.0 °F 44% 29.77 in - South 12.7 mph - N/A   Clear
4:20 PM 73.4 °F 50.0 °F 44% 29.77 in - South 12.7 mph - N/A   Clear
4:50 PM 68.0 °F 55.4 °F 64% 29.77 in 6.2 mi ENE 6.9 mph - N/A   Scattered Clouds
5:20 PM 68.0 °F 53.6 °F 60% 29.77 in 6.2 mi ESE 6.9 mph - N/A   Scattered Clouds
5:50 PM 68.0 °F 51.8 °F 56% 29.77 in 6.2 mi SE 4.6 mph - N/A   Mostly Cloudy
6:20 PM 66.2 °F 53.6 °F 64% 29.77 in 6.2 mi SSW 6.9 mph - N/A   Mostly Cloudy
6:50 PM 64.4 °F 55.4 °F 73% 29.77 in 6.2 mi South 11.5 mph - N/A   Mostly Cloudy
7:20 PM 64.4 °F 51.8 °F 64% 29.77 in 6.2 mi South 6.9 mph - N/A   Mostly Cloudy
7:50 PM 62.6 °F 51.8 °F 68% 29.77 in 6.2 mi South 5.8 mph - N/A   Scattered Clouds
9:50 PM 60.8 °F 51.8 °F 72% 29.80 in 6.2 mi South 5.8 mph - N/A   Scattered Clouds
10:50 PM 59.0 °F 50.0 °F 72% 29.80 in - Calm Calm - N/A   Clear
11:50 PM 59.0 °F 48.2 °F 67% 29.80 in - Calm Calm - N/A   Clear